Location: Hernandez
(10.3704°N, 67.2181°W)
Time: 19:21:11
(UTC+00:00)

Cosmos 1607 - Pass Details

Date: 13 April 2024
Orbit: 908 x 993 km, 65.0° (Epoch: 22 May)

Event Time Altitude Azimuth Distance (km) Brightness Sun altitude
Rises 23:13:42 0° 346° (NNW) 3,660 7.4 -9.1°
Reaches altitude 10° 23:16:22 10° 352° (N) 2,702 6.6 -9.7°
Maximum altitude 23:22:29 51° 67° (ENE) 1,176 4.1 -11.2°
Drops below altitude 10° 23:28:28 10° 142° (SE) 2,645 5.8 -12.6°
Enters shadow 23:29:07 - 143° (SE) 2,878 6.0 -12.8°
